Date String (YYYY-MM-DD hh:mm:ss) UTC,Instrument flags,Ambient pressure (hPa),Sample flow (lpm),Bypass flow (lpm),Sample temperature (°C),Ambient temperature (°C),ASC tube jacket temperature (°C),LED temperature (°C),Box temperature (°C),Sample RH (%),Span deviation,Mass concentration (μg/m³),Mass concentration (μg/m³),Mass concentration (μg/m³)
DateTimeUTC,F1_M11,P_M11,Q1_M11,Q2_M11,T1_M11,T2_M11,T3_M11,T4_M11,T5_M11,U1_M11,ZSPAN_M11,X0_M11,X2_M11,X1_M11
2023-05-07 14:00:00,,0828.4,5.01,0.00,27.7,26.2,00.0,36.0,29.3,14.4,0000.0,0008.24,0002.85,0001.46
2023-05-07 14:01:00,,0828.4,5.00,0.00,27.7,26.3,00.0,36.0,29.3,14.2,0000.0,0008.33,0002.86,0001.49
2023-05-07 14:02:00,,0828.5,5.00,0.00,27.8,26.3,00.0,36.0,29.3,14.0,0000.0,0007.96,0002.86,0001.50
2023-05-07 14:03:00,,0828.5,5.00,0.00,27.8,26.3,00.0,36.0,29.3,13.6,0000.0,0007.97,0002.85,0001.50
2023-05-07 14:04:00,,0828.6,5.00,0.00,27.8,26.3,00.0,36.1,29.3,14.9,0000.0,0007.97,0002.90,0001.52
2023-05-07 14:05:00,,0828.6,4.99,0.00,27.8,26.3,00.0,36.1,29.3,15.4,0000.0,0008.60,0002.94,0001.52
2023-05-07 14:06:00,,0828.6,5.00,0.00,27.8,26.3,00.0,36.1,29.3,15.4,0000.0,0009.22,0002.99,0001.54
2023-05-07 14:07:00,,0828.5,5.00,0.00,27.8,26.3,00.0,36.1,29.4,15.4,0000.0,0009.09,0003.00,0001.55
2023-05-07 14:08:00,,0828.5,5.00,0.00,27.8,26.3,00.0,36.1,29.3,15.7,0000.0,0009.15,0002.95,0001.55
2023-05-07 14:09:00,,0828.5,5.00,0.00,27.8,26.3,00.0,36.1,29.4,15.5,0000.0,0009.55,0002.93,0001.54
2023-05-07 14:10:00,,0828.5,5.00,0.00,27.8,26.3,00.0,36.1,29.4,15.0,0000.0,0009.94,0002.93,0001.54
2023-05-07 14:11:00,,0828.5,5.00,0.00,27.8,26.3,00.0,36.1,29.4,14.8,0000.0,0010.62,0002.88,0001.54
2023-05-07 14:12:00,,0828.5,5.00,0.00,27.8,26.3,00.0,36.1,29.4,14.6,0000.0,0010.58,0002.93,0001.54
2023-05-07 14:13:00,,0828.5,5.00,0.00,27.8,26.3,00.0,36.1,29.3,14.8,0000.0,0010.70,0002.94,0001.53
2023-05-07 14:14:00,,0828.5,5.00,0.00,27.8,26.4,00.0,36.1,29.3,15.0,0000.0,0011.06,0003.07,0001.54
2023-05-07 14:15:00,,0828.5,5.00,0.00,27.8,26.4,00.0,36.1,29.4,14.6,0000.0,0011.43,0003.08,0001.53
2023-05-07 14:16:00,,0828.5,5.00,0.00,27.8,26.4,00.0,36.1,29.4,13.9,0000.0,0011.11,0003.07,0001.52
2023-05-07 14:17:00,,0828.6,5.00,0.00,27.8,26.4,00.0,36.1,29.4,13.6,0000.0,0010.87,0003.03,0001.51
2023-05-07 14:18:00,,0828.5,5.01,0.00,27.9,26.4,00.0,36.2,29.4,13.6,0000.0,0011.10,0003.04,0001.51
2023-05-07 14:19:00,,0828.5,5.00,0.00,27.9,26.4,00.0,36.2,29.4,13.6,0000.0,0011.18,0003.09,0001.52
2023-05-07 14:20:00,,0828.5,4.99,0.00,27.9,26.4,00.0,36.2,29.4,13.0,0000.0,0011.08,0003.10,0001.51
2023-05-07 14:21:00,,0828.5,4.98,0.00,27.9,26.4,00.0,36.2,29.4,13.1,0000.0,0010.24,0003.11,0001.50
2023-05-07 14:22:00,,0828.6,5.01,0.00,27.9,26.4,00.0,36.2,29.4,12.3,0000.0,0009.99,0003.05,0001.48
2023-05-07 14:23:00,,0828.6,5.00,0.00,27.9,26.4,00.0,36.2,29.5,12.1,0000.0,0009.73,0003.06,0001.46
2023-05-07 14:24:00,,0828.6,5.00,0.00,27.9,26.5,00.0,36.2,29.4,12.1,0000.0,0009.75,0002.98,0001.45
2023-05-07 14:25:00,,0828.6,5.00,0.00,27.9,26.5,00.0,36.2,29.4,12.7,0000.0,0009.34,0002.89,0001.44
2023-05-07 14:26:00,,0828.5,5.00,0.00,27.9,26.5,00.0,36.2,29.4,12.2,0000.0,0009.01,0002.80,0001.45
2023-05-07 14:27:00,,0828.5,4.99,0.00,27.9,26.5,00.0,36.2,29.5,12.7,0000.0,0009.28,0002.79,0001.45
2023-05-07 14:28:00,,0828.5,4.99,0.00,27.9,26.5,00.0,36.2,29.5,12.5,0000.0,0009.35,0002.88,0001.45
2023-05-07 14:29:00,,0828.5,5.00,0.00,28.0,26.5,00.0,36.2,29.5,12.7,0000.0,0008.96,0002.87,0001.43
2023-05-07 14:30:00,,0828.6,5.00,0.00,28.0,26.5,00.0,36.3,29.6,11.8,0000.0,0008.93,0002.80,0001.41
2023-05-07 14:31:00,,0828.5,5.01,0.00,28.0,26.5,00.0,36.3,29.5,11.9,0000.0,0008.70,0002.69,0001.39
2023-05-07 14:32:00,,0828.5,5.01,0.00,28.0,26.5,00.0,36.3,29.5,11.9,0000.0,0008.37,0002.63,0001.39
2023-05-07 14:33:00,,0828.6,5.01,0.00,28.0,26.5,00.0,36.3,29.6,12.0,0000.0,0008.11,0002.64,0001.39
2023-05-07 14:34:00,,0828.6,5.01,0.00,28.0,26.6,00.0,36.3,29.6,12.0,0000.0,0007.61,0002.66,0001.41
2023-05-07 14:35:00,,0828.5,4.99,0.00,28.0,26.6,00.0,36.3,29.5,12.2,0000.0,0007.67,0002.68,0001.42
2023-05-07 14:36:00,,0828.6,4.99,0.00,28.0,26.6,00.0,36.3,29.5,12.0,0000.0,0008.00,0002.67,0001.42
2023-05-07 14:37:00,,0828.6,5.00,0.00,28.0,26.6,00.0,36.3,29.6,12.1,0000.0,0008.19,0002.67,0001.41
2023-05-07 14:38:00,,0828.6,5.01,0.00,28.1,26.6,00.0,36.3,29.6,12.3,0000.0,0008.03,0002.64,0001.39
2023-05-07 14:39:00,,0828.6,5.01,0.00,28.1,26.6,00.0,36.3,29.6,12.4,0000.0,0008.17,0002.63,0001.39
2023-05-07 14:40:00,,0828.7,4.99,0.00,28.1,26.6,00.0,36.3,29.6,12.4,0000.0,0007.90,0002.59,0001.40
2023-05-07 14:41:00,,0828.6,4.99,0.00,28.1,26.7,00.0,36.4,29.6,12.3,0000.0,0007.80,0002.58,0001.41
2023-05-07 14:42:00,,0828.6,5.00,0.00,28.1,26.7,00.0,36.4,29.6,12.2,0000.0,0007.82,0002.62,0001.43
2023-05-07 14:43:00,,0828.6,5.01,0.00,28.1,26.7,00.0,36.4,29.6,11.8,0000.0,0008.00,0002.71,0001.44
2023-05-07 14:44:00,,0828.6,5.01,0.00,28.1,26.7,00.0,36.4,29.6,12.0,0000.0,0008.11,0002.79,0001.45
2023-05-07 14:45:00,,0828.7,5.00,0.00,28.1,26.7,00.0,36.4,29.6,11.8,0000.0,0008.26,0002.76,0001.44
2023-05-07 14:46:00,,0828.7,4.99,0.00,28.1,26.7,00.0,36.4,29.6,12.3,0000.0,0008.41,0002.75,0001.42
2023-05-07 14:47:00,,0828.6,4.99,0.00,28.2,26.7,00.0,36.4,29.7,11.9,0000.0,0007.78,0002.75,0001.42
2023-05-07 14:48:00,,0828.6,5.00,0.00,28.2,26.7,00.0,36.4,29.7,11.6,0000.0,0007.42,0002.75,0001.41
2023-05-07 14:49:00,,0828.6,5.01,0.00,28.2,26.7,00.0,36.4,29.7,12.1,0000.0,0007.49,0002.79,0001.40
2023-05-07 14:50:00,,0828.6,5.01,0.00,28.2,26.7,00.0,36.4,29.7,11.5,0000.0,0006.50,0002.78,0001.39
2023-05-07 14:51:00,,0828.6,5.00,0.00,28.2,26.8,00.0,36.5,29.7,11.3,0000.0,0006.50,0002.77,0001.37
2023-05-07 14:52:00,,0828.6,4.99,0.00,28.2,26.8,00.0,36.5,29.8,11.5,0000.0,0006.60,0002.73,0001.35
2023-05-07 14:53:00,,0828.6,5.00,0.00,28.2,26.8,00.0,36.5,29.8,12.2,0000.0,0007.02,0002.71,0001.35
2023-05-07 14:54:00,,0828.6,5.01,0.00,28.2,26.8,00.0,36.5,29.8,12.1,0000.0,0006.94,0002.71,0001.35
2023-05-07 14:55:00,,0828.6,5.00,0.00,28.2,26.8,00.0,36.5,29.8,12.7,0000.0,0006.68,0002.64,0001.34
2023-05-07 14:56:00,,0828.6,5.00,0.00,28.2,26.8,00.0,36.5,29.8,13.2,0000.0,0006.59,0002.68,0001.35
2023-05-07 14:57:00,,0828.6,5.00,0.00,28.3,26.9,00.0,36.5,29.8,12.7,0000.0,0006.84,0002.64,0001.36
2023-05-07 14:58:00,,0828.6,5.01,0.00,28.3,26.9,00.0,36.5,29.8,12.6,0000.0,0006.68,0002.60,0001.37
2023-05-07 14:59:00,,0828.6,5.00,0.00,28.3,26.9,00.0,36.6,29.8,11.2,0000.0,0006.56,0002.56,0001.37
